Alice Robinson

Here are Alice's all time Phoenix Running results

26.2 miles
03:54:12 PB (35)
Phoenix Running Silver Wings
Event Date Time Distance Pace Bib
Track Wars VI - The Revenge - 12 hr & Evening Run 03/09/21 03:55:43 26.2 00:08:59 58
The MERCURY Morning Run 15/08/21 04:37:01 26.2 00:10:34 17
The MERCURY Evening Run 15/08/21 04:35:39 26.2 00:10:31 17
The VENUS Morning Run 14/08/21 04:28:48 26.2 00:10:15 17
The VENUS Evening Run 14/08/21 04:31:09 26.2 00:10:20 17
The EARTH Morning Run 13/08/21 04:33:56 26.2 00:10:27 17
The MARS Morning Run 12/08/21 04:50:32 26.2 00:11:05 17
The JUPITER Morning Run 11/08/21 04:54:00 26.2 00:11:13 17
The SATURN Morning Run 10/08/21 04:32:54 26.2 00:10:24 17
The SATURN Evening Run 10/08/21 04:37:53 26.2 00:10:36 17
The URANUS Morning Run 09/08/21 04:11:49 26.2 00:09:36 17
The NEPTUNE Evening Run 08/08/21 03:54:12 26.2 00:08:56 100
Run by Me - Katie Simpsons 100th 31/07/21 04:26:21 26.2 00:10:09 40
Top Run 2 16/07/21 04:40:01 26.2 00:10:41 41
One Run to Rule Them All - The Elven Red Run 29/05/21 04:48:12 26.2 00:11:00 12
Frozen Phoenix 28/05/21 04:43:19 26.2 00:10:48 12
Runderbird 1 27/05/21 04:44:21 26.2 00:10:51 12
Runderbird 2 26/05/21 04:52:05 26.2 00:11:08 12
Runderbird 3 25/05/21 04:56:28 26.2 00:11:18 12
Runderbird 4 24/05/21 04:51:12 26.2 00:11:06 12
Runderbird 5 23/05/21 04:54:12 26.2 00:11:13 12
Top Run 22/05/21 04:34:24 26.2 00:10:28 12
Grease Lightning Run 21/05/21 04:50:17 26.2 00:11:04 12
Run to the PUB 20/05/21 04:39:07 26.2 00:10:39 12
Movies Day 19/05/21 04:50:44 26.2 00:11:05 12
X-PhoeniX 18/05/21 04:29:30 26.2 00:10:17 12
The Cyclops 17/05/21 04:17:13 26.2 00:09:49 12
Marmalade Mooch 16/05/21 04:14:11 26.2 00:09:42 12
Shark Run 15/05/21 04:33:47 26.2 00:10:26 12
Top Run 3 14/05/21 04:33:23 26.2 00:10:26 12
Groovy Baby 13/05/21 04:39:49 26.2 00:10:40 12
Dinosaur Dash 12/05/21 04:39:33 26.2 00:10:40 12
PJ's on the Path 11/05/21 04:46:58 26.2 00:10:57 12
Once Upon A Run 10/05/21 04:50:51 26.2 00:11:06 12
One Run to Rule Them All 09/05/21 04:24:47 26.2 00:10:06 12